Location: Peebles
(55.6410°N, 3.1709°W)
Time: 13:42:11
(UTC+01:00)

Daily predictions for brighter satellites

Satellite Brightness Start Highest point End
(mag) Time Altitude Azimuth Time Altitude Azimuth Time Altitude Azimuth
COSMOS 2428 2.8 18:27:33 10° NNW 18:33:11 60° NE 18:38:49 10° SE
SMAP 3.3 18:30:34 10° SSE 18:35:14 77° WSW 18:39:55 10° NNW
Cosmos 2322 Rocket 3.8 18:30:23 10° NW 18:35:38 41° WSW 18:40:51 10° S
Cosmos 2333 Rocket 2.7 18:30:42 10° NNW 18:36:09 42° NE 18:41:37 10° ESE
Cosmos 1626 2.1 18:32:36 10° N 18:36:21 71° ENE 18:40:05 10° SSE
Cosmos 1400 Rocket 2.8 18:32:30 10° NNW 18:36:36 76° ENE 18:40:36 10° SSE
Cosmos 2082 Rocket 3.2 18:31:10 10° WSW 18:36:40 46° NW 18:42:13 10° NNE
Cosmos 1743 Rocket 3.5 18:33:06 10° N 18:37:29 73° ENE 18:41:54 10° SSE
ATLAS 5 CENTAUR R/B 2.9 18:33:46 10° W 18:38:33 41° NNW 18:43:55 10° ENE
Cosmos 1461 3.1 18:34:40 10° SSW 18:38:41 55° SE 18:42:55 10° NE
H-2A R/B 4.1 18:38:49 10° ESE 18:41:49 21° ENE 18:44:50 10° N
Abrixas rocket 4.1 18:39:25 10° SW 18:41:56 20° SSE 18:44:26 10° ESE
Ariane Rocket 3.8 18:37:14 10° S 18:42:16 58° WSW 18:47:20 10° NNW
Cosmos 1953 3.8 18:39:54 10° SW 18:43:46 41° WNW 18:47:39 10° N
Cosmos 2112 Rocket 4.1 18:39:08 10° SSW 18:44:27 85° WNW 18:49:44 10° NNE
Lacrosse 4 Rocket 3.4 18:41:14 10° WNW 18:44:48 23° NNW 18:48:19 10° NNE
deb Kosmos-1763 4.2 18:43:23 10° SSW 18:47:11 64° ESE 18:51:01 10° NNE
Cosmos 921 Rocket 3.0 18:42:59 10° NNW 18:47:30 79° ENE 18:51:55 10° SSE
Cosmos 2221 3.7 18:45:10 10° SE 18:48:31 22° E 18:51:53 10° NE
NOSS 0 Rocket 4.2 18:44:35 10° NNW 18:50:38 51° NE 18:56:37 10° ESE
Cosmos 2084 3.2 18:48:10 10° NW 18:51:57 64° NNE 18:55:45 10° ESE
Cosmos 1842 Rocket 3.9 18:49:30 10° SSE 18:53:46 45° E 18:58:01 10° NNE
FENGYUN 3A 3.8 18:52:49 10° SE 18:58:05 57° ENE 19:03:26 10° N
Cosmos 1500 Rocket 3.5 18:54:06 10° NNW 18:58:31 88° E 19:02:50 10° SSE
Timation 2 Rocket 4.4 18:52:31 10° SW 18:59:07 72° NW 19:06:00 10° NE
CZ-4 R/B 2.3 18:55:02 10° S 18:59:09 55° W 19:03:13 10° NNW
Cosmos 2366 rocket 4.0 18:54:36 10° S 19:00:46 70° E 19:06:54 10° NNE
Cosmos 2322 4.2 18:56:06 10° NW 19:01:49 67° WSW 19:07:28 10° SSE
Cosmos 1833 Rocket 4.1 18:57:12 10° WSW 19:02:21 35° NW 19:07:32 10° NNE
USA 234 3.3 18:55:48 10° E 19:02:22 80° N 19:08:57 10° W
Cosmos 1867 4.4 18:59:55 10° WSW 19:05:12 48° NNW 19:10:31 10° NE
SPOT 3 Rocket 3.6 19:00:29 10° SSE 19:05:42 84° ENE 19:10:58 10° NNW
Cosmos 1452 Rocket 4.0 19:02:00 10° NNW 19:07:13 65° WSW 19:12:25 10° SSE
Meteor 2-1 Rocket 4.4 19:06:11 10° S 19:11:53 56° E 19:17:41 10° NNE
FREGAT/IRIS 3.3 19:10:53 10° SE 19:13:36 32° ENE 19:16:21 10° N
SL-8 Rocket 4.2 19:07:23 10° SSW 19:13:37 80° WNW 19:19:56 10° N
Meteor 1-16 Rocket 4.3 19:08:43 10° SSW 19:14:02 80° WNW 19:19:31 10° NNE
Cosmos 2219 Rocket 2.1 19:09:42 10° NNW 19:15:19 72° NE 19:20:56 10° SE
Resurs 01 Rocket 2.8 19:17:12 16° E 19:19:34 24° ENE 19:23:07 10° N
Cosmos 1242 Rocket 4.5 19:16:39 10° SW 19:19:59 32° WNW 19:23:23 10° N
EO 1 Del DPAF 3.2 19:16:37 10° NNE 19:20:27 66° ESE 19:24:18 10° S
CZ-2C R/B 3.8 19:16:01 10° NNE 19:20:37 84° WNW 19:25:06 10° SSW
Cosmos 2098 Rocket 4.1 19:16:03 10° SSE 19:20:39 38° E 19:26:20 10° NNE
Cosmos 1315 Rocket 3.1 19:18:13 10° NNW 19:22:17 72° W 19:26:22 10° S
COSMO-SKYMED 1 2.6 19:19:19 10° NNE 19:23:38 61° ESE 19:27:56 10° S
Cosmos 1110 Rocket 4.1 19:20:13 10° NNW 19:25:30 57° NE 19:30:43 10° SE
Spot 2 Rocket 4.4 19:22:40 16° ESE 19:25:44 28° ENE 19:30:03 10° N
Sich 1 3.3 19:21:57 10° N 19:26:10 45° ENE 19:30:24 10° SE
Cosmos 1000 Rocket 4.4 19:22:05 10° N 19:28:23 76° ENE 19:34:35 10° SSE
Landsat 4 4.2 19:27:56 10° N 19:31:39 60° WNW 19:35:19 10° SSW
ALOS 2.3 19:28:10 10° SSE 19:32:51 83° WSW 19:37:34 10° NNW
Iridium 4 Rocket 3.8 19:27:52 10° SSE 19:33:29 59° E 19:39:18 10° N
H-2A R/B 4.1 19:33:32 10° NE 19:34:36 11° NE 19:36:01 10° NNE
Aureole 2 Rocket 2.6 19:31:24 10° NNW 19:35:12 90° W 19:39:13 10° SSE
Cosmos 1821 Rocket 4.1 19:31:19 10° SSE 19:37:14 49° E 19:43:16 10° NNE
Cosmos 1805 Rocket 3.4 19:32:50 10° N 19:37:14 77° ENE 19:41:39 10° SSE
Cosmos 1934 Rocket 4.4 19:33:48 10° SSE 19:39:41 42° E 19:45:36 10° NNE
Aureole 1 Rocket 3.8 19:35:25 10° SW 19:40:59 63° WNW 19:45:11 10° NNE
Cosmos 2218 Rocket 4.5 19:35:13 10° SSW 19:41:18 64° WNW 19:47:27 10° N
NOAA 12 4.5 19:36:24 10° S 19:41:42 70° WSW 19:47:04 10° NNW
Meteor 1-28 Rocket 4.2 19:39:34 10° N 19:43:16 50° WNW 19:46:56 10° SW
Cosmos 1666 Rocket 3.5 19:41:55 10° N 19:46:17 65° ENE 19:50:35 10° SSE
Cosmos 1726 2.4 19:43:50 10° SSE 19:47:20 42° E 19:50:51 10° NNE
In-Cosmos 22 Rocket 4.2 19:42:49 10° N 19:48:29 62° ENE 19:54:13 10° SSE
Cosmos 2237 Rocket 2.2 19:43:29 10° NNW 19:49:13 73° NE 19:53:38 17° SE
Lacrosse 5 rocket 1.5 19:45:14 10° W 19:49:40 75° N 19:51:38 31° ENE
SJ-6B 2.6 19:48:40 12° SSE 19:52:02 70° ENE 19:55:47 10° N
Cosmos 1048 Rocket 4.1 19:47:16 10° S 19:52:10 47° ESE 19:57:05 10° NE
Cosmos 1633 Rocket 3.0 19:48:35 10° N 19:53:00 64° ENE 19:57:11 11° SSE
Cosmos 1933 Rocket 4.2 19:50:01 10° N 19:54:02 34° ENE 19:54:42 33° E
Cosmos 2123 Rocket 3.9 19:52:27 10° N 19:58:42 75° ENE 20:04:59 10° SSE
SL-16 R/B 2.5 19:54:41 10° NNW 20:00:13 48° NE 20:02:35 31° E
Thor Agena Rocket 3.5 19:55:16 10° NNE 20:00:20 54° ESE 20:05:17 10° S
Envisat 3.2 19:57:55 26° ESE 20:00:25 47° ENE 20:05:18 10° N
Cosmos 158 Rocket 3.9 19:56:02 10° SSW 20:01:04 63° ESE 20:06:18 10° NNE
Cosmos 44 3.5 20:00:54 10° S 20:04:47 36° SE 20:04:47 36° SE
Meteor 2-3 Rocket 3.9 19:59:49 10° N 20:05:29 51° ENE 20:08:20 27° SE
Cosmos 1908 3.6 20:03:26 10° SSW 20:07:19 65° WNW 20:11:14 10° N
GENESIS II 4.1 20:04:40 10° SW 20:08:38 70° SE 20:09:39 47° ENE
Cosmos 1605 Rocket 4.1 20:05:47 10° SSE 20:11:33 47° E 20:17:21 10° NNE
SKYMED 2 4.3 20:07:27 10° N 20:11:43 54° WNW 20:15:57 10° SW
Cosmos 967 Rocket 4.5 20:06:12 10° NW 20:12:41 88° SW 20:16:36 26° SE
Cosmos 1980 3.7 20:07:22 10° NW 20:13:03 80° WSW 20:17:07 20° SSE
ERS-1 Rocket 4.3 20:16:04 23° NE 20:16:04 23° NE 20:19:36 10° N
H-2A R/B 3.4 20:11:54 10° S 20:15:45 58° W 20:19:40 10° NNW
COSMOS 2428 4.2 20:12:08 10° NW 20:17:16 35° WSW 20:22:22 10° S
Abrixas rocket 4.0 20:15:17 10° WSW 20:17:46 22° SSW 20:17:46 22° SSW
Cosmos 1461 4.1 20:14:02 10° W 20:18:01 40° NNW 20:20:30 21° NNE
Cosmos 2333 Rocket 2.8 20:15:03 10° NW 20:20:40 56° WSW 20:26:16 10° SSE
YAOGAN 6 4.3 20:22:42 22° NNE 20:22:42 22° NNE 20:24:28 10° N
Cosmos 1331 Rocket 4.2 20:15:58 10° NNW 20:21:13 72° WSW 20:25:00 19° SSE
Cosmos 2082 Rocket 4.3 20:17:57 10° WNW 20:22:13 21° NNW 20:26:29 10° NNE
ATLAS 5 CENTAUR R/B 3.0 20:19:18 10° WNW 20:24:20 40° NNE 20:26:25 30° NE
Lacrosse 4 Rocket 3.7 20:22:12 10° NW 20:24:57 16° N 20:26:29 14° NNE
CZ-4C R/B 2.5 20:20:11 10° SSW 20:25:19 45° SE 20:26:11 42° E
Cosmos 2221 3.2 20:21:28 10° SSW 20:25:45 56° WNW 20:30:06 10° N
Cosmos 2219 3.1 20:25:43 10° SSW 20:31:24 67° ESE 20:35:25 20° NE
Cosmos 44 Rocket 3.2 20:27:29 10° SSW 20:31:56 57° SE 20:31:56 57° SE
Meteor 2-2 Rocket 4.2 20:27:48 10° S 20:33:22 60° E 20:38:56 10° NNE
Cosmos 1892 3.1 20:30:48 10° N 20:33:53 53° NNE 20:33:53 53° NNE
Cosmos 1300 4.1 20:33:31 10° SSW 20:39:18 28° N 20:41:13 10° NNE
Cosmos 1447 Rocket 4.4 20:31:05 10° N 20:37:29 80° ENE 20:41:18 26° SSE
CZ-2D R/B 3.6 20:36:57 46° SSW 20:37:56 66° WSW 20:41:50 10° NNW
Cosmos 1269 Rocket 3.9 20:36:34 10° SSW 20:41:52 90° WNW 20:47:13 10° NNE
Cosmos 1470 Rocket 3.6 20:40:01 10° NNW 20:44:32 81° W 20:45:20 59° S
USA 234 3.2 20:43:09 44° ESE 20:45:29 79° SSW 20:52:05 10° WNW
MOS 1-B Rocket 4.2 20:41:14 14° S 20:46:10 70° WSW 20:52:38 10° NNW
SJ-11-01 4.2 20:48:24 69° NE 20:48:24 69° NE 20:53:01 10° NNW
Cosmos 1302 Rocket 4.1 20:43:32 10° NNW 20:48:45 72° WSW 20:50:21 44° S
Meteor 2-17 Rocket 4.4 20:55:17 58° E 20:55:17 58° E 21:01:00 10° NNE
Resurs 01 Rocket 2.0 20:54:48 48° SSW 20:55:44 61° WSW 21:00:09 10° NNW
Cosmos 1939 Rocket 3.5 20:57:12 51° N 20:57:12 51° N 21:00:23 10° NNW
Cosmos 2219 Rocket 4.0 20:54:10 10° NW 20:58:52 28° WSW 21:03:31 10° SSW
ARGOS 4.0 21:00:14 36° NE 21:00:14 36° NE 21:04:15 10° N
Meteor 2-10 4.2 20:58:06 10° SSW 21:03:09 68° WNW 21:08:21 10° NNE
Spot 2 Rocket 3.8 21:02:53 43° SSW 21:04:24 63° WSW 21:09:28 10° NNW
Resurs 1-3 4.2 21:03:46 49° SW 21:04:24 54° W 21:08:44 10° NNW
USA 32 4.4 20:59:16 10° NNW 21:04:28 63° W 21:06:55 31° SSW
NOAA 11 4.3 21:08:29 59° NE 21:08:29 59° NE 21:13:15 10° NNW
H-2A R/B 3.3 21:14:10 31° NNE 21:14:10 31° NNE 21:17:33 10° N
Cosmos 1992 Rocket 4.1 21:10:24 10° NNW 21:14:59 65° N 21:14:59 65° N
Geosat 4.3 21:29:11 63° W 21:29:11 63° W 21:33:44 10° NW
Lacrosse 5 rocket 2.9 21:24:45 10° WNW 21:27:18 34° WNW 21:27:18 34° WNW
Cosmos 2237 Rocket 3.9 21:28:04 10° NW 21:32:51 28° WSW 21:35:30 20° SW
SPOT 5 4.4 21:40:41 30° N 21:40:41 30° N 21:43:25 10° N
Cosmos 1943 4.0 21:33:18 10° NNW 21:37:39 44° N 21:37:39 44° N
Envisat 4.4 21:38:08 29° SW 21:39:37 35° W 21:44:17 10° NNW
SL-16 R/B 2.9 21:38:58 10° NW 21:44:24 46° WSW 21:44:28 46° WSW
Cosmos 1603 4.1 21:39:04 10° NNW 21:43:36 58° NNW 21:43:36 58° NNW
Tsikada Rocket 4.4 21:38:58 10° N 21:44:00 56° NNE 21:44:00 56° NNE
ERS-1 Rocket 4.2 21:56:04 37° NNW 21:56:04 37° NNW 21:59:04 10° NNW
Lacrosse 4 Rocket 4.1 22:01:34 10° NNW 22:02:48 16° NNW 22:02:48 16° NNW
Cosmos 2082 Rocket 4.3 22:04:38 10° NW 22:08:30 18° N 22:09:09 18° NNE
Terra 4.2 22:12:35 16° N 22:12:35 16° N 22:13:41 10° N
ATLAS 5 CENTAUR R/B 3.1 22:04:10 10° NW 22:07:57 45° NW 22:07:57 45° NW
CZ-4C R/B 3.4 22:08:04 10° WSW 22:11:25 37° W 22:11:25 37° W
USA 234 4.3 22:30:30 35° WSW 22:30:30 35° WSW 22:35:11 10° WNW
H-2A R/B 4.1 22:54:48 26° NW 22:54:48 26° NW 22:57:13 10° NNW
